sat.trackr.live / text

‹ back to catalog

STARLINK-4274

NORAD 52865 · 2022-062AM

PAYLOAD ACTIVE UNKNOWN

§ Identity

Operator
Country
US
Launch date
2022-06-17
Launch site
AFETR
Launch vehicle
Mass (kg)
RCS (m²)

Purposes: comms

External: N2YO · Heavens-Above · Gunter

§ Orbital elements

Epoch: 2026-09-19T14:12:37.664640Z

Period
93.85 min
Inclination
53.1614°
Eccentricity
0.0001215
Mean motion
15.34393082 rev/d
Perigee alt
461.9 km
Apogee alt
463.6 km
Semi-major
6,840.9 km
B*
3.0676e-5
RAAN
221.6328°
Arg perigee
90.6721°
Mean anomaly
269.4421°
Rev number
23,536

§ Raw data

STARLINK-42741 52865U 22062AM  26262.59210260  .00000660  00000+0  30676-4 0  99982 52865  53.1614 221.6328 0001215  90.6721 269.4421 15.34393082235361

JSON: /api/v1/satellites/52865 · /tle

For live sub-satellite position, see the globe view (requires WebGL).

§ Visibility from observer

Set your observer location to see the next 7 days of passes ≥ 10°. The values pass through the URL so the page stays shareable.

No JS? Fill the form by hand. The geolocation button needs JavaScript.